Regional Weather Roundup
Issued by NWS

Home | Current Version | Previous Version | Text Only | Print | Product List | Glossary Off
Versions: 1 2 3 4 5 6 7 8 9 10 11 12 13 14 15 16 17 18 19 20 21 22 23 24 25 26 27 28 29 30 31 32 33 34 35 36 37 38 39 40 41 42 43 44 45 46 47 48 49 50

000
ASUS45 KSLC 281310
RWRUT

UTAH REGIONAL WEATHER ROUNDUP
NATIONAL WEATHER SERVICE SALT LAKE CITY UT
600 AM MST WED JAN 28 2015

UTZ001>011-023>025-281400-

NORTHERN UTAH

CITY           SKY/WX    TMP DP  RH WIND       PRES   REMARKS
BRIGHAM CITY   CLOUDY    42  37  84 E5        30.22S
HILL AFB       CLOUDY    41  39  91 E2        30.23R
LOGAN          MIX PCPN  37  35  92 CALM      30.21R FOG
OGDEN          LGT RAIN  40  39  97 S5        30.22R
PROVO AIRPORT  CLOUDY    39  34  81 N3        30.23R
SALT LAKE CITY CLOUDY    40  37  89 SW3       30.22R
VERNAL         PTCLDY    27  23  85 W5        30.23S WCI  22
WENDOVER       CLOUDY    34  30  86 NE3       30.23R
HEBER CITY     MIX PCPN  39  32  75 CALM      30.22R
WEST JORDAN    CLOUDY    43  36  75 S6        30.23R

$$

UTZ012>022-026-027-281400-

SOUTHERN/CENTRAL UTAH

CITY           SKY/WX    TMP DP  RH WIND       PRES   REMARKS
BLANDING       CLEAR     32  30  94 CALM      30.33S
BRYCE CANYON   CLEAR     23  21  92 W6        30.29R WCI  16
CEDAR CITY     CLEAR     31  27  85 S3        30.26R
DELTA          CLOUDY    38  34  86 S8        30.24S WCI  32
MILFORD        CLEAR     34  31  88 SW14      30.25R WCI  25
MOAB/CYNLANDS  CLEAR     28  26  92 CALM      30.24R
PRICE          MOCLDY    33  28  81 NE5       30.23S WCI  29
ST GEORGE      MOSUNNY   43  37  81 CALM      30.28F
KANAB          CLEAR     30  30 100 NE3       30.32S

$$

REGIONAL REPORTS     COLORADO/ARIZONA

CITY           SKY/WX    TMP DP  RH WIND       PRES   REMARKS
CRAIG, CO      MOCLDY    32  31  96 SW5       30.21F WCI  27
GRAND JUNCTION PTCLDY    25  24  96 CALM      30.25R
RIFLE          CLEAR     25  22  88 SW5       30.26R WCI  19
MONTROSE       PTCLDY    31  26  82 SE3       30.26F
CORTEZ         CLEAR     27  25  92 CALM      30.27F
PAGE, AZ       NOT AVBL
GRAND CANYON   MOCLDY    27  25  92 CALM      30.30F
KINGMAN        CLEAR     36  35  96 CALM      30.24F FOG
FLAGSTAFF      PTCLDY    24  21  88 CALM      30.30S

$$

REGIONAL REPORTS    NEVADA/IDAHO/WYOMING

CITY           SKY/WX    TMP DP  RH WIND       PRES   REMARKS
LAS VEGAS, NV  MOCLDY    50  44  80 SW7       30.20F
ELY            MOCLDY    33  32  96 W8        30.28R WCI  26
ELKO           CLOUDY    38  34  85 SW3       30.27S
POCATELLO, ID  FOG       38  38 100 SW12      30.22R VSB 1/4 WCI  30
BURLEY         CLOUDY    39  37  92 W3        30.21R
EVANSTON, WY   FLURRIES  33  29  85 SW14      30.20R WCI  23
ROCK SPRINGS   MOCLDY    33  28  81 W14       30.18S WCI  23
KEMMERER       CLOUDY    32  32 100 CALM      30.19R

$$



USA.gov is the U.S. government's official web portal to all federal, state and local government web resources and services.